{"data":{"norad_id":53630,"epoch":"2026-05-24T23:51:49.267872Z","epoch_age_seconds":75408,"freshness":"FRESH","line1":"1 53630U 22104AU  26144.99432023  .00004284  00000+0  28723-3 0  9997","line2":"2 53630  53.2162 241.6472 0001571  87.5832 272.5340 15.08818543207589","mean_motion":15.08818543,"eccentricity":0.0001571,"inclination_deg":53.2162,"raan_deg":241.6472,"arg_perigee_deg":87.5832,"mean_anomaly_deg":272.534,"bstar":0.00028723,"rev_number":20758,"period_min":95.438911901018,"perigee_km":538.72216589364,"apogee_km":540.89578451905,"semimajor_km":6917.9459752063,"source":"CELESTRAK","updated_at":"2026-05-25T13:38:17.481309Z"}}